TimeEST,TemperatureF,Dew PointF,Humidity,Sea Level PressureIn,VisibilityMPH,Wind Direction,Wind SpeedMPH,Gust SpeedMPH,PrecipitationIn,Events,Conditions,WindDirDegrees,DateUTC
12:56 AM,44.1,37.0,76,30.11,10.0,Calm,Calm,-,N/A,,Overcast,0,2013-03-05 05:56:00
2:56 AM,43.0,37.9,82,30.12,10.0,Calm,Calm,-,N/A,,Mostly Cloudy,0,2013-03-05 07:56:00
3:56 AM,44.1,39.0,82,30.12,10.0,SSW,3.5,-,N/A,,Mostly Cloudy,200,2013-03-05 08:56:00
4:56 AM,45.0,41.0,86,30.13,10.0,Calm,Calm,-,N/A,,Scattered Clouds,0,2013-03-05 09:56:00
5:56 AM,42.1,39.9,92,30.15,10.0,SW,4.6,-,N/A,,Scattered Clouds,220,2013-03-05 10:56:00
6:56 AM,45.0,42.1,90,30.14,10.0,SW,4.6,-,N/A,,Mostly Cloudy,220,2013-03-05 11:56:00
7:56 AM,48.0,43.0,83,30.14,10.0,SSW,6.9,-,N/A,,Mostly Cloudy,210,2013-03-05 12:56:00
8:56 AM,54.0,41.0,62,30.12,10.0,South,10.4,-,N/A,,Scattered Clouds,190,2013-03-05 13:56:00
9:56 AM,62.1,35.1,37,30.09,10.0,South,15.0,-,N/A,,Scattered Clouds,190,2013-03-05 14:56:00
10:56 AM,64.9,32.0,29,30.08,10.0,SW,18.4,25.3,N/A,,Mostly Cloudy,230,2013-03-05 15:56:00
11:56 AM,64.0,34.0,33,30.06,10.0,SW,16.1,23.0,N/A,,Mostly Cloudy,230,2013-03-05 16:56:00
12:56 PM,63.0,36.0,37,30.02,10.0,SSW,13.8,20.7,N/A,,Mostly Cloudy,210,2013-03-05 17:56:00
1:56 PM,61.0,39.0,44,29.99,10.0,SSW,10.4,-,N/A,,Mostly Cloudy,200,2013-03-05 18:56:00
2:56 PM,61.0,41.0,48,29.96,10.0,SSW,10.4,-,N/A,,Mostly Cloudy,200,2013-03-05 19:56:00
3:56 PM,59.0,42.1,53,29.95,10.0,SW,9.2,-,N/A,,Overcast,220,2013-03-05 20:56:00
4:56 PM,60.1,44.1,55,29.91,10.0,SSW,9.2,-,N/A,,Mostly Cloudy,200,2013-03-05 21:56:00
5:56 PM,59.0,44.1,58,29.88,10.0,South,11.5,-,N/A,,Scattered Clouds,190,2013-03-05 22:56:00
6:56 PM,60.1,46.0,60,29.86,10.0,SSW,15.0,23.0,N/A,,Mostly Cloudy,200,2013-03-05 23:56:00
7:56 PM,61.0,46.0,58,29.80,10.0,South,18.4,24.2,N/A,,Mostly Cloudy,190,2013-03-06 00:56:00
8:56 PM,61.0,50.0,67,29.77,10.0,SSW,18.4,26.5,N/A,,Overcast,210,2013-03-06 01:56:00
9:56 PM,63.0,52.0,67,29.75,10.0,SSW,20.7,27.6,N/A,,Overcast,210,2013-03-06 02:56:00
10:56 PM,61.0,54.0,78,29.75,10.0,SW,15.0,24.2,0.00,Rain,Light Rain,230,2013-03-06 03:56:00
11:56 PM,59.0,51.1,75,29.74,10.0,WSW,12.7,-,0.00,,Mostly Cloudy,240,2013-03-06 04:56:00